Filtrer par Nom Sexe Groupe d'age
Grimpee du Ventoux 2003
RG. DOS. TEMPS CAT RG. POINTS
1 5152 SARLIN JEAN NOEL 01:09:01:000 Hom 1 0.00 LARAGNE, FRANCE
2 5104 ROUX MICHEL 01:12:12:900 Hom 2 0.00 DIGNE LES BAINS, FRANCE
3 5137 CHABERT DOMINIQUE 01:13:22:900 Hom 3 0.00 NIMES, France
4 5116 RICHARD STANISLAS 01:13:36:000 Hom 4 0.00 Annemasse, France
5 5176 DAUMAS ERIC 01:14:54:000 Hom 5 0.00 NOVES, FRANCE
6 16 HUGUES RICO 01:15:47:000 Hom 6 0.00 Grenoble, France
7 5366 SPEYBROUCK FILIP 01:16:43:000 Hom 7 0.00 BRUGGE, BELGIQUE
8 5029 DUCHENE JEROME 01:17:01:400 Hom 8 0.00 PRINGY, FRANCE
9 5055 SACAZE MICHEL 01:17:39:100 Hom 9 0.00 ALGORTA (BIZKAIA), ANDORRE
10 5165 GALLEGO MIKAEL 01:17:39:800 Hom 10 0.00 LA MOTTE D AVEILLANS, FRANCE
11 5182 BESSIERE THIERRY 01:18:11:000 Hom 11 0.00 THONES, FRANCE
12 5016 REYNAUD MICHAEL 01:18:16:000 Hom 12 0.00 THUEYTS, FRANCE
13 5086 MIRANDA DIDIER 01:18:26:000 Hom 13 0.00 ST BERNARD DU TOUVET, France
14 5175 COSTECHAREYRE CLAUDE 01:19:01:000 Hom 14 0.00 TAIN L HERMITAGE, FRANCE
15 5005 ROUX JEAN PASCAL 01:19:20:500 Hom 15 0.00 BEDOIN, FRANCE
16 5124 COLLARD CHRISTOPHE 01:20:06:000 Hom 16 0.00 LE BESSAT, FRANCE
17 5042 COMBES JEAN MARC 01:20:16:000 Hom 17 0.00 FUVEAU, FRANCE
18 5149 CHAUDIER MARTINE 01:20:55:000 Fe 1 0.00 CHAVANNES, FRANCE
19 5174 BUISSON PHILIPPE 01:20:58:000 Hom 18 0.00 VENISSIEUX, FRANCE
20 5297 MAS JOSE 01:21:05:000 Hom 19 0.00 TOULOUSE, FRANCE
21 5177 RUBATIER JEAN MARC 01:23:01:300 Hom 20 0.00 BELLEY, FRANCE
22 5161 BERNARD PATRICK 01:23:11:800 Hom 21 0.00 ST PERAY, FRANCE
23 5306 LICINI MARC 01:23:37:000 Hom 22 0.00 ROQUEMAURE, FRANCE
24 5153 MILLON J-PIERRE 01:23:45:900 Hom 23 0.00 CARPENTRAS, FRANCE
25 5150 MICHELLI MARC 01:23:46:000 Hom 24 0.00 BRANDO, FRANCE
26 5159 CAMILLIERI STEPHANE 01:23:55:000 Hom 25 0.00 MARSEILLE, FRANCE
27 5011 BARRACO JOEL 01:24:37:000 Hom 26 0.00 GRABELS, FRANCE
28 5085 SAUNIER DANIEL 01:25:14:800 Hom 27 0.00 GEX, FRANCE
29 5143 FOROT YVES 01:25:19:800 Hom 28 0.00 LAMASTRE, FRANCE
30 5180 VISSCHER KARINA 01:25:38:000 Fe 2 0.00 LEIDEN, Pays-Bas
31 5022 DE LUCA GENNARO 01:26:05:000 Hom 29 0.00 SAINT JUST SAINT RAMBERT, FRANCE
32 5293 MAC MANUS JAMES 01:26:38:000 Hom 30 0.00 LONDON, Royaume-Uni
33 5139 QUATRESOLS STEPHANE 01:26:55:700 Hom 31 0.00 SAINT MIHIEL, FRANCE
34 5065 RICHERT JEAN-JACQUES 01:26:59:800 Hom 32 0.00 QUATZENHEIM, FRANCE
35 5047 CLEMENT LAURENT 01:27:05:000 Hom 33 0.00 ANNONAY, France
36 5295 FREAU DENIS 01:27:19:000 Hom 34 0.00 PIOLENC, France
37 5166 CHAPON CHRISTIAN 01:27:55:500 Hom 35 0.00 THIZY, FRANCE
38 5181 ROQUEBRUNE DAVID 01:27:56:500 Hom 36 0.00 FONTAINE DE VAUCLUSE, FRANCE
39 5108 BEAUMOND PHILIPPE 01:28:43:800 Hom 37 0.00 AUBAGNE, FRANCE
40 5127 DAVOURIE ANTHONY 01:29:23:000 Hom 38 0.00 HAEDINVAST, FRANCE
41 5064 PECOULT CHRISTIAN 01:29:59:000 Hom 39 0.00 CAVAILLON, FRANCE
42 5040 NAVARRO SERGE 01:30:06:400 Hom 40 0.00 MARTIGUES, FRANCE
43 5183 LHERMET MICHEL 01:30:09:000 Hom 41 0.00 LA TALAUDIERE, FRANCE
44 5186 TERRISSE FRANCK 01:30:30:000 Hom 42 0.00 SAINT ETIENNE, FRANCE
45 5074 SAILLARD RAPHAEL 01:30:33:000 Hom 43 0.00 LA ROCHETTE, FRANCE
46 5041 CLEYET MAREL ERNEST 01:30:35:000 Hom 44 0.00 LYON, FRANCE
47 5157 GIRARD BERTRAND 01:31:14:300 Hom 45 0.00 ENTRE DEUX GUIERS, FRANCE
48 5146 CORNU JEAN 01:31:50:000 Hom 46 0.00 MARSEILLE, FRANCE
49 5147 DESPLACES ALAIN 01:32:16:000 Hom 47 0.00 POLEYMIEUX AU MT D OR, FRANCE
50 5071 GIORGI SYLVAIN 01:32:58:000 Hom 48 0.00 TRETS, FRANCE
52 5283 BARAN J.MICHEL 01:33:47:000 Hom 49 0.00 ST FONS, FRANCE
53 5172 PERRIN PHILIPPE 01:33:54:000 Hom 50 0.00 DIE, FRANCE
54 5156 LESAGE PHILIPPE 01:33:55:000 Hom 51 0.00 BEDOIN, FRANCE
55 5028 DURANTON ERIC 01:34:03:000 Hom 52 0.00 SAINT ETIENNE, FRANCE
57 5073 SAILLARD GEORGES 01:35:00:000 Hom 53 0.00 LA ROCHETTE, FRANCE
58 5117 AMSTUTZ JEAN LUC 01:35:48:000 Hom 54 0.00 VUGELLLES, SUISSE
59 5079 CORBELLI REMY 01:35:51:000 Hom 55 0.00 VIDAUBAN, FRANCE
60 5160 LEBAS OLIVIER 01:35:51:000 Hom 56 0.00 TOULON, FRANCE
61 5012 FLETCHER MICHAEL 01:36:50:400 Hom 57 0.00 BRENTFORD, Royaume-Uni
62 5275 DECKERS ERWIN 01:36:55:500 Hom 58 0.00 HEES, BELGIQUE
63 5307 DI GLERIA OLIVIER 01:37:08:000 Hom 59 0.00 CHEVENOZ, FRANCE
64 5119 BREILLY MARC ANTOINE 01:37:14:000 Hom 60 0.00 LA FARLEDE, FRANCE
65 5118 LALOUX GUY 01:37:20:000 Hom 61 0.00 BEERSEL, Belgique
66 5171 LAGUNA RAYMONDE 01:37:25:000 Fe 3 0.00 VILLENEUVE, FRANCE
67 5128 EDOUARD MICHAEL 01:37:41:000 Hom 62 0.00 SAINT NAZAIRE, FRANCE
68 5025 BARRETO FRANCISCO 01:37:43:900 Hom 63 0.00 JARRIE, FRANCE
69 5178 SAINT CYR PASCAL 01:38:19:300 Hom 64 0.00 MORNAS, FRANCE
70 5106 MENELEK SERGE 01:38:39:000 Hom 65 0.00 CHINON, FRANCE
71 5101 VAISSIERE MARC 01:38:41:000 Hom 66 0.00 POURRIERES, FRANCE
72 5148 JOUBERT MICHEL 01:39:40:000 Hom 67 0.00 GRENOBLE, FRANCE
73 5179 KSAVRELOF MARC 01:39:41:200 Hom 68 0.00 CREST, FRANCE
74 5077 GASTON ROBERT 01:40:23:000 Hom 69 0.00 ST MITRE LES REMPARTS, FRANCE
75 5185 LEGENDRE JULIEN 01:41:08:000 Hom 70 0.00 Collonges, France
76 5300 PIOVANO PHILIPPE 01:43:20:500 Hom 71 0.00 LA ROQUETTE SUR VAR, FRANCE
77 5075 JAUNY PHILIP 01:44:15:700 Hom 72 0.00 GREASQUE, FRANCE
78 5169 CELLIER JEAN MICHEL 01:44:20:000 Hom 73 0.00 LAGNIEU, FRANCE
79 5069 SCORLETTI RENE 01:44:31:000 Hom 74 0.00 AIX EN PROVENCE, FRANCE
80 5019 DICKHOUT JAN 01:44:35:000 Hom 75 0.00 EINDHOVEN, Pays-Bas
81 5298 COUTTON SERGE 01:44:57:000 Hom 76 0.00 BUIS LES BARONNIES, FRANCE
82 5279 RYAN KEIRAN 01:45:27:200 Hom 77 0.00 WILLIAMSTOWN VICTORIA, 11
83 5050 THOMSON EVENCE 01:46:34:000 Hom 78 0.00 DHUY, BELGIQUE
84 5162 CENEDESE ALINE 01:47:07:000 Fe 4 0.00 LYON, FRANCE
85 5173 VARENNE J.PAUL 01:47:50:000 Hom 79 0.00 VARENNES SUR USSON, FRANCE
86 5168 CRUNCHANT JULIEN 01:47:52:600 Hom 80 0.00 LA SEYNE S/MER, FRANCE
87 5043 VUAGNOUX JEAN LUC 01:50:28:000 Hom 81 0.00 ANTIBES, FRANCE
88 5008 CHIAVERINA ROLAND 01:51:18:000 Hom 82 0.00 SAINT MAURICE L EXIL, FRANCE
89 5110 BOCCANFUSO CASIMIR 01:51:20:000 Hom 83 0.00 FORCALQUIER, FRANCE
90 5158 REISER YANN 01:51:45:000 Hom 84 0.00 LA ROQUE D'ANTHERON, FRANCE
91 5105 BASCOP PASCAL 01:51:45:800 Hom 85 0.00 ROANNE, France
92 5007 PERRIN JEAN 01:51:53:300 Hom 86 0.00 JUAN LES PINS, FRANCE
93 5154 NAZ NILS 01:52:18:000 Hom 87 0.00 LA ROCHE/LE BUIS, FRANCE
94 5287 PRADEAU JEAN 01:52:58:000 Hom 88 0.00 LES ORRES, FRANCE
95 12 RICO LAURE 01:53:00:000 Fe 5 0.00 GRENOBLE, FRANCE
96 5286 GARREAU GILLES 01:53:06:000 Hom 89 0.00 Vallées en Champagne, France
98 5091 BAILLE STEPHANE 01:54:03:000 Hom 91 0.00 LE MAS STE PUELLE, FRANCE
99 5002 EYER MARC 01:54:33:000 Hom 92 0.00 LAMOURA, France
100 5058 BONNEFOY ALAIN 01:55:42:000 Hom 93 0.00 MUDAISON, FRANCE
101 5155 GAUTHIER MICHEL 01:59:09:900 Hom 94 0.00 TOULON, FRANCE
102 5027 LOUBET DANIEL 02:00:53:200 Hom 95 0.00 ANTIBES, FRANCE
103 5151 GUICHARD GEOFFROY 02:01:04:000 Hom 96 0.00 MALAUCENE, FRANCE
104 5167 CARRERE ROBERT 02:01:19:000 Hom 97 0.00 PIOLENC, FRANCE
105 5164 DITTMAN GEORGES 02:01:49:000 Hom 98 0.00 BELLEGARDE EN DIOIS, FRANCE
106 5145 CHARPENTIER CHRISTIAN 02:04:54:000 Hom 99 0.00 ORANGE, FRANCE
108 5107 THIROT ERIC 02:07:32:000 Hom 101 0.00 OIZON, FRANCE
109 5184 TESTU GILLES 02:08:24:000 Hom 102 0.00 POISSY, FRANCE
110 5170 CUILLERAT GILLES 02:10:27:300 Hom 103 0.00 BRON, FRANCE
112 5068 SCORLETTI CHANTALE 02:14:27:000 Fe 6 0.00 AIX EN PROVENCE, FRANCE
113 5089 FERRATO PATRICE 02:16:10:000 Hom 105 0.00 GIGNAC LA NERTHE, FRANCE
114 5301 PIOVANO NOELE 02:16:37:000 Fe 7 0.00 LA ROQUETTE SUR VAR, FRANCE
115 5035 MICHEL FLORENT 02:16:54:000 Hom 106 0.00 CAVAILLON, FRANCE
116 5187 BRUERE CHRISTOPHE 02:23:06:300 Hom 107 0.00 CINQ MARS LA PILE, FRANCE

GF Gassin Golfe de Saint Tropez

Après une saison 2020 très particulière et face à cette pandémie qui s'étire en longueur, nous avons dû nous adapter.

Ainsi, c'est avec beaucoup de regrets que nous vous annonçons que GF Gassin Golfe de Saint Tropez ne sera pas organisée en 2021.

Nous travaillons afin que vous puissiez relever le défi de manière alternative.

Nous vous tiendrons informés.
TOP